{"data":{"norad_id":57412,"epoch":"2026-05-25T02:01:40.082880Z","epoch_age_seconds":67451,"freshness":"FRESH","line1":"1 57412U 23102J   26145.08449170  .00000912  00000+0  42682-4 0  9995","line2":"2 57412  43.0050 177.1306 0002019 267.2112  92.8509 15.27578288157921","mean_motion":15.27578288,"eccentricity":0.0002019,"inclination_deg":43.005,"raan_deg":177.1306,"arg_perigee_deg":267.2112,"mean_anomaly_deg":92.8509,"bstar":4.2682e-5,"rev_number":15792,"period_min":94.266854361051,"perigee_km":481.66894788053,"apogee_km":484.43949689613,"semimajor_km":6861.1912223883,"source":"CELESTRAK","updated_at":"2026-05-25T13:38:18.316127Z"}}